Weather at Samos Airport

Public forecast

Using degrees Celsius for public forecast. Weather courtesy of forecast.io.

Current aviation weather report (METAR) for Samos Airport

Retrieved 2022/01/29 06:50 UTC (35 minutes ago):

LGSM 290650Z VRB01KT 9999 FEW025 06/00 Q1021

Aviation forecast (TAF) for Samos Airport

Forecast is more than 12 hours old.

Retrieved 2012/09/21 03:06 UTC (9 years ago):

TAF LGSM 210200Z 2103/2115 VRB05KT 9999 FEW020 BECMG 2104/2106 30012KT